Wind_Speed
14 17 22 26 26 24 23 21 20 18 17 19 25 27 27 26 25 25 25 25 26 25 23 20 18 15 13 9 6 4 3 4 4 6 10 8 8 16 19 19 21 23 22 23 25 25 27
11 14 17 20 26 28 27 26 25 23 22 21 22 26 27 27 27 26 26 25 26 27 25 23 20 18 16 13 12 9 7 5 3 4 11 10 10 10 16 16 17 20 23 23 23 23 23
13 12 11 17 19 25 30 30 28 28 27 25 24 24 25 28 29 28 28 28 26 25 27 26 24 21 21 18 15 13 12 9 6 4 7 9 10 11 11 14 14 20 20 21 19 19 19
13 14 15 15 15 20 24 31 32 31 31 30 28 27 26 27 28 29 29 29 28 26 26 27 27 26 25 22 20 17 14 11 9 7 5 7 7 12 16 14 17 16 17 19 18 16 15
16 16 15 16 17 18 20 26 31 35 34 33 32 30 29 28 28 28 28 29 29 29 28 26 26 27 28 25 25 20 17 14 13 12 9 7 6 9 13 15 16 13 13 14 13 12 14
15 16 18 18 17 18 18 20 28 30 37 35 35 33 32 31 30 29 28 29 30 30 30 29 28 28 29 27 27 24 22 18 17 15 14 11 10 8 10 13 14 12 13 11 11 10 11
17 17 17 18 20 19 19 20 20 27 30 38 37 36 34 33 32 30 29 29 30 30 30 31 31 32 29 27 29 27 25 21 19 17 16 14 14 10 11 11 12 13 14 10 10 7 7
18 19 18 19 19 20 21 20 21 22 25 33 38 39 37 36 35 32 30 30 31 31 30 30 30 30 32 31 32 31 28 25 22 21 19 17 14 16 15 14 11 12 12 10 8 6 3
17 18 19 19 19 20 20 23 22 21 23 24 33 39 40 38 37 34 32 31 30 31 30 30 30 30 31 31 33 33 30 27 25 24 22 19 18 19 19 18 15 14 12 9 7 8 4
15 14 16 18 18 18 19 21 23 23 21 23 23 32 40 40 40 36 33 33 31 30 29 31 31 31 33 32 32 35 32 30 28 26 25 22 22 21 24 22 20 18 15 14 12 11 9
17 16 15 15 16 18 19 18 21 22 23 21 23 24 31 40 41 39 35 33 32 31 28 31 31 30 33 33 32 36 35 32 30 29 26 23 24 22 24 24 26 22 18 20 18 14 13
15 15 15 15 16 17 18 19 21 21 22 23 22 23 25 30 39 40 38 35 33 33 32 30 30 31 31 31 32 36 37 34 33 34 30 31 27 25 23 29 30 27 20 24 20 18 14
16 16 16 17 19 20 21 21 22 21 21 22 24 23 25 25 30 36 38 37 35 34 34 33 30 31 31 30 31 35 36 36 36 35 34 33 31 28 29 27 26 29 22 26 21 19 16
16 16 15 16 17 16 16 16 17 20 20 23 22 23 26 25 27 30 34 37 36 35 34 34 34 32 31 32 34 35 36 36 37 37 36 36 34 31 30 29 28 33 28 29 23 20 21
16 15 14 14 15 16 16 15 14 15 17 22 23 23 27 26 26 30 31 33 33 34 32 32 34 33 34 31 34 36 36 35 37 36 36 36 36 34 32 31 30 31 31 30 30 30 27
18 16 14 14 15 17 17 16 15 13 14 19 22 23 27 28 27 29 30 31 31 31 31 31 32 35 33 33 32 35 35 34 33 33 34 35 34 34 35 34 33 33 32 34 34 32 27
17 15 15 14 16 18 19 20 19 17 17 17 19 22 27 29 30 31 29 30 31 32 32 32 32 34 34 33 34 34 34 33 30 30 32 33 33 33 35 36 34 33 38 38 35 35 26
16 15 15 16 17 19 19 20 21 21 21 21 20 22 25 30 30 31 28 27 31 32 32 32 32 34 35 34 33 34 33 30 29 30 32 32 34 34 34 35 35 36 40 44 39 37 35
17 16 16 17 18 19 20 20 22 22 21 21 21 22 24 31 31 31 31 30 28 26 27 30 33 35 36 36 33 33 32 29 28 29 33 33 35 36 37 39 39 39 42 42 39 40 40
16 16 16 17 18 20 21 20 21 23 21 20 17 17 19 27 29 29 29 30 26 25 25 27 33 36 37 37 35 33 29 25 23 23 31 34 36 36 39 36 36 36 36 42 41 43 37
14 15 16 16 16 17 20 21 20 21 21 18 15 11 12 16 20 22 25 28 28 26 27 28 32 36 36 37 37 35 32 26 22 21 24 33 35 37 36 36 36 36 35 40 40 38 37
15 16 17 18 20 18 18 20 19 18 19 16 11 7 7 12 14 18 21 23 29 29 30 30 31 34 36 36 36 30 25 26 25 21 26 35 36 35 33 34 34 36 34 37 36 34 34
16 17 18 19 19 19 18 17 19 18 17 17 11 6 7 12 15 17 20 24 28 31 32 33 32 33 37 37 36 30 22 23 24 23 27 34 33 31 29 28 30 38 37 35 30 29 27
17 19 19 18 20 21 19 19 18 18 16 14 14 9 7 11 15 18 21 24 27 29 31 34 33 32 34 38 38 34 23 23 24 21 21 31 30 26 25 24 32 34 35 34 32 28 25
20 21 21 21 22 22 21 20 18 17 16 14 13 12 10 11 14 18 20 23 25 27 30 33 34 32 33 35 38 37 30 25 24 24 23 21 26 25 24 26 29 31 35 33 32 28 25
22 23 24 23 23 23 22 21 21 19 18 16 14 13 13 12 16 19 20 20 24 26 29 30 34 33 33 33 37 38 36 32 32 27 27 24 20 27 25 24 31 29 26 26 25 31 27
26 27 27 23 20 22 24 24 23 22 20 19 18 15 14 16 16 18 21 22 23 26 27 31 34 34 34 33 36 37 36 38 35 33 30 28 23 27 26 28 27 26 21 21 31 32 28
30 27 27 27 28 29 31 32 29 28 27 25 23 22 19 18 20 18 19 21 25 26 28 30 34 36 35 34 34 38 38 37 42 40 37 35 30 28 30 30 31 28 26 24 24 26 23
30 30 30 33 32 33 32 34 35 33 32 33 31 28 25 22 23 20 21 22 24 28 29 31 31 32 35 35 34 35 39 36 36 41 45 43 37 34 33 32 27 22 22 19 15 18 16
Wind_Direction
265 255 249 247 247 246 242 240 241 237 235 230 226 223 224 223 221 218 215 214 215 216 213 216 217 220 224 214 208 182 148 132 122 90 72 104 151 126 123 118 106 103 98 90 83 74 72
291 278 261 252 247 244 243 239 237 237 236 234 231 228 226 227 226 222 218 217 214 217 217 217 219 222 226 224 218 207 196 181 155 111 86 93 145 133 126 121 118 112 106 96 86 75 63
280 281 280 265 257 249 244 241 236 235 236 236 235 232 230 228 230 228 223 220 218 215 218 219 219 223 228 230 226 224 215 205 196 160 107 96 115 148 138 117 112 113 112 108 98 82 70
282 279 272 268 268 260 251 245 240 236 235 236 236 236 234 233 228 228 229 224 221 218 219 219 219 220 227 231 233 228 223 217 211 200 169 129 117 141 149 138 128 124 119 117 113 100 87
276 273 275 269 265 265 263 250 244 239 237 236 237 237 237 236 234 230 227 229 227 224 221 218 219 221 226 227 236 232 230 224 218 216 202 181 183 153 163 167 151 148 130 120 115 108 99
280 276 271 269 269 266 265 261 249 244 240 237 236 237 237 237 236 234 231 229 229 227 224 222 220 221 224 221 233 235 231 225 224 225 215 208 214 203 187 185 186 176 147 145 120 111 103
283 278 274 270 266 268 267 262 259 250 245 239 237 235 236 237 237 235 235 233 230 229 225 224 222 223 221 218 229 231 234 228 223 226 228 217 223 219 220 204 187 164 173 165 149 150 118
285 280 278 273 270 265 265 265 262 259 253 242 237 235 234 235 236 235 235 236 233 229 229 226 224 222 220 220 223 228 231 230 226 227 228 227 227 223 227 227 215 181 190 190 188 185 178
296 286 277 276 275 270 267 262 263 262 258 254 239 234 234 233 234 234 234 236 234 231 230 228 225 221 221 220 221 231 228 228 227 227 227 228 225 227 228 230 224 214 213 224 220 236 228
304 298 287 278 278 278 272 267 263 262 261 255 252 238 232 232 232 232 233 233 234 234 231 230 228 224 225 221 217 227 228 228 226 225 225 220 226 230 231 229 228 219 224 226 238 259 252
308 303 296 289 282 278 276 276 268 261 258 258 251 247 237 231 232 231 231 231 231 232 230 228 225 223 224 221 218 226 228 228 228 228 226 225 221 229 235 235 230 223 231 233 235 254 261
317 312 307 299 294 291 286 277 272 268 261 254 253 248 242 236 231 232 232 231 230 230 228 227 228 225 224 221 216 222 226 226 227 229 227 230 224 227 235 230 234 229 227 235 239 251 257
327 319 313 305 300 295 291 287 278 270 265 258 250 248 244 239 233 231 232 233 232 231 228 227 228 226 225 222 220 221 224 226 229 230 230 232 230 228 234 235 244 237 223 236 239 238 252
329 322 319 314 312 310 305 297 289 275 264 258 254 245 248 238 235 233 230 231 233 232 231 229 229 226 226 223 223 224 225 224 227 228 227 229 231 229 233 235 241 234 224 238 236 241 247
335 328 325 326 324 323 319 314 307 288 275 260 254 247 245 243 236 232 230 228 229 232 232 229 228 227 226 224 225 225 228 227 226 227 229 230 230 230 231 235 230 230 225 230 236 250 256
342 335 332 331 333 337 335 327 321 312 288 273 260 249 245 243 238 235 231 227 227 227 225 226 225 229 226 224 223 226 228 230 232 229 226 229 228 228 229 232 231 226 225 226 232 247 254
347 344 338 331 331 339 344 343 329 314 301 286 277 260 248 243 238 235 233 228 228 226 225 223 223 229 230 226 225 228 230 229 228 228 228 226 224 224 228 230 234 230 225 228 236 243 249
354 351 348 340 334 333 336 339 340 327 312 300 287 269 253 246 238 235 230 229 228 229 227 224 222 225 231 231 228 228 231 230 228 225 228 227 223 221 224 229 233 233 229 230 234 241 250
352 352 349 346 340 335 332 338 337 337 322 311 305 291 260 244 235 231 225 226 227 228 226 225 221 220 227 230 231 232 233 232 229 227 228 227 227 218 221 226 226 231 237 237 235 239 247
345 347 348 345 343 341 336 336 334 340 333 327 314 292 279 239 229 228 225 223 224 224 220 219 219 218 221 227 227 232 236 238 232 235 236 233 230 226 225 234 237 235 235 236 235 241 252
331 339 341 342 345 346 340 340 339 339 339 334 327 302 260 228 221 223 222 219 221 218 220 217 217 221 222 226 228 226 235 238 244 237 239 239 239 233 227 229 232 229 231 234 238 244 247
327 328 330 335 340 340 343 340 344 340 343 337 329 307 252 215 218 220 217 216 219 218 221 223 219 223 228 229 232 228 227 228 237 237 233 238 238 234 227 227 226 231 229 231 235 240 245
317 318 319 321 328 336 337 338 339 344 340 343 331 300 267 231 220 220 218 217 218 220 220 225 223 224 226 228 235 235 216 221 229 234 233 231 234 231 230 228 225 230 228 229 232 233 237
312 310 314 316 318 326 332 333 332 335 340 335 339 314 265 252 236 232 225 224 224 222 223 226 228 224 227 229 233 237 227 214 218 225 222 224 230 230 229 223 228 230 223 226 228 240 238
310 309 311 311 314 316 318 321 325 325 326 330 321 323 302 259 250 247 240 232 231 226 228 228 229 230 228 230 232 232 228 220 217 223 225 230 230 229 229 223 232 226 222 227 233 240 253
312 317 317 315 314 312 312 312 315 315 317 314 316 309 302 290 260 252 247 241 235 230 229 232 231 231 230 230 231 232 227 231 225 226 229 234 237 229 232 228 234 236 228 229 237 242 245
317 319 321 318 319 322 320 316 315 313 308 305 301 300 293 284 281 266 253 238 242 237 229 229 233 231 231 230 232 235 230 224 225 228 228 227 231 230 230 233 240 234 229 236 240 245 249
316 317 317 315 307 308 310 309 308 308 308 307 301 294 286 280 275 269 264 248 236 243 235 231 230 232 233 231 232 234 237 231 225 223 228 228 227 226 227 232 235 239 244 259 271 257 246
309 308 309 308 305 303 306 309 308 302 298 296 292 288 281 273 271 267 261 253 238 240 239 236 236 233 236 236 234 236 239 237 233 229 228 230 228 226 227 230 235 234 251 274 281 216 217
Height
5851 5852 5852 5854 5856 5858 5861 5863 5865 5867 5869 5870 5873 5876 5879 5882 5885 5889 5892 5895 5897 5900 5903 5906 5908 5909 5911 5914 5915 5916 5918 5918 5920 5923 5925 5925 5925 5924 5924 5924 5923 5923 5923 5923 5923 5922 5921
5847 5847 5848 5849 5850 5853 5855 5858 5860 5863 5865 5867 5869 5871 5874 5877 5881 5884 5888 5891 5894 5897 5900 5903 5905 5907 5909 5912 5913 5915 5917 5918 5920 5922 5925 5926 5927 5927 5926 5926 5925 5925 5925 5925 5925 5923 5923
5844 5844 5844 5844 5845 5847 5849 5852 5855 5857 5860 5862 5864 5867 5869 5872 5876 5879 5883 5887 5890 5893 5897 5899 5902 5905 5906 5909 5911 5913 5916 5918 5919 5921 5924 5926 5927 5929 5929 5929 5928 5926 5926 5925 5926 5925 5924
5840 5840 5841 5841 5842 5842 5843 5845 5848 5850 5853 5856 5859 5862 5865 5867 5870 5874 5878 5882 5885 5889 5893 5896 5898 5901 5903 5905 5908 5911 5914 5916 5918 5920 5923 5925 5926 5929 5930 5930 5929 5928 5927 5926 5926 5925 5925
5836 5836 5836 5837 5837 5838 5838 5839 5841 5844 5846 5849 5853 5856 5859 5862 5865 5869 5873 5876 5880 5884 5888 5891 5895 5898 5900 5903 5904 5908 5912 5915 5917 5918 5920 5923 5925 5927 5929 5930 5929 5929 5930 5928 5928 5927 5926
5832 5832 5832 5832 5832 5833 5833 5833 5834 5836 5839 5843 5846 5849 5852 5856 5859 5863 5868 5870 5874 5878 5882 5887 5890 5895 5896 5900 5901 5905 5908 5912 5914 5916 5919 5921 5923 5925 5926 5929 5930 5931 5931 5929 5929 5929 5928
5828 5828 5827 5827 5828 5828 5828 5828 5829 5830 5832 5835 5838 5842 5846 5849 5853 5858 5862 5865 5870 5873 5876 5880 5885 5888 5892 5896 5897 5900 5904 5908 5911 5914 5917 5919 5921 5922 5923 5926 5929 5930 5930 5929 5929 5929 5929
5823 5823 5822 5822 5822 5822 5823 5823 5824 5824 5825 5827 5830 5834 5839 5842 5847 5852 5855 5858 5862 5866 5870 5874 5878 5883 5886 5890 5893 5896 5900 5904 5908 5910 5914 5917 5919 5919 5920 5923 5926 5929 5928 5928 5929 5929 5930
5818 5818 5817 5817 5817 5817 5817 5817 5818 5819 5819 5820 5822 5826 5830 5835 5839 5845 5848 5852 5856 5859 5864 5869 5872 5876 5880 5885 5888 5891 5895 5899 5903 5906 5910 5913 5916 5916 5918 5920 5923 5925 5925 5926 5928 5928 5929
5814 5813 5813 5813 5812 5812 5812 5812 5812 5813 5814 5814 5815 5817 5822 5827 5834 5837 5842 5846 5849 5853 5857 5862 5865 5870 5873 5879 5883 5884 5889 5894 5897 5901 5904 5908 5910 5912 5914 5917 5921 5922 5924 5925 5926 5928 5929
5810 5810 5809 5808 5808 5808 5807 5807 5806 5807 5808 5809 5810 5811 5814 5819 5824 5830 5835 5839 5843 5847 5852 5855 5858 5862 5866 5873 5879 5879 5883 5887 5892 5895 5900 5905 5906 5908 5911 5915 5916 5920 5921 5923 5924 5926 5927
5807 5805 5805 5804 5803 5802 5802 5802 5801 5801 5802 5803 5804 5806 5808 5811 5816 5821 5826 5831 5837 5842 5843 5848 5851 5856 5861 5865 5870 5873 5877 5882 5886 5888 5893 5895 5900 5904 5906 5909 5911 5915 5919 5920 5921 5923 5924
5804 5802 5801 5799 5798 5797 5796 5795 5795 5795 5796 5797 5798 5800 5802 5805 5809 5813 5818 5824 5830 5832 5837 5842 5845 5850 5855 5859 5864 5866 5871 5876 5879 5883 5888 5891 5895 5899 5902 5905 5907 5911 5915 5916 5919 5921 5922
5802 5799 5797 5795 5794 5792 5791 5790 5789 5789 5790 5790 5793 5795 5795 5799 5802 5805 5810 5817 5822 5825 5829 5834 5839 5843 5848 5853 5857 5861 5864 5869 5872 5877 5882 5885 5890 5894 5898 5901 5903 5906 5911 5912 5913 5916 5917
5799 5797 5794 5792 5791 5789 5787 5786 5785 5784 5784 5784 5786 5788 5789 5792 5796 5799 5804 5809 5813 5817 5822 5828 5832 5836 5841 5847 5851 5854 5858 5863 5866 5871 5876 5879 5884 5888 5892 5894 5897 5900 5904 5908 5909 5911 5913
5797 5794 5792 5790 5789 5787 5785 5783 5781 5780 5779 5778 5779 5782 5783 5785 5789 5792 5797 5803 5806 5809 5815 5820 5825 5830 5835 5840 5844 5847 5851 5856 5861 5866 5870 5873 5878 5882 5885 5887 5890 5895 5900 5903 5905 5906 5908
5795 5793 5790 5788 5787 5784 5782 5779 5777 5776 5775 5774 5773 5775 5776 5778 5782 5785 5790 5795 5797 5801 5807 5814 5819 5822 5827 5833 5837 5841 5845 5850 5855 5860 5863 5867 5872 5877 5879 5881 5885 5890 5893 5896 5899 5901 5903
5794 5791 5789 5787 5784 5782 5780 5778 5775 5772 5769 5768 5767 5769 5769 5770 5775 5778 5783 5786 5790 5794 5801 5806 5812 5816 5819 5825 5830 5835 5839 5843 5848 5852 5856 5861 5864 5868 5873 5876 5878 5881 5884 5889 5893 5897 5899
5793 5790 5787 5785 5782 5780 5777 5774 5771 5768 5765 5762 5760 5759 5760 5762 5766 5770 5775 5779 5784 5789 5794 5800 5804 5808 5813 5818 5824 5828 5832 5837 5841 5845 5848 5853 5857 5862 5864 5867 5870 5873 5878 5883 5887 5891 5892
5791 5788 5785 5783 5780 5777 5774 5771 5768 5764 5760 5757 5754 5752 5751 5753 5758 5763 5769 5774 5779 5783 5787 5793 5797 5802 5807 5812 5817 5822 5827 5831 5836 5840 5843 5847 5851 5855 5859 5863 5867 5870 5874 5877 5881 5883 5887
5789 5786 5783 5780 5777 5774 5771 5768 5764 5761 5757 5753 5749 5747 5747 5749 5753 5758 5763 5769 5773 5778 5782 5787 5792 5796 5802 5807 5811 5817 5821 5826 5830 5834 5837 5840 5845 5849 5854 5856 5857 5862 5867 5870 5874 5879 5882
5787 5784 5781 5778 5775 5772 5769 5766 5762 5758 5755 5752 5749 5747 5746 5748 5751 5755 5759 5763 5767 5772 5777 5781 5787 5791 5796 5802 5805 5811 5816 5821 5824 5828 5831 5834 5837 5842 5847 5850 5852 5856 5860 5863 5867 5871 5875
5784 5781 5778 5775 5772 5769 5766 5763 5760 5756 5754 5750 5749 5747 5747 5748 5749 5752 5756 5758 5762 5766 5771 5775 5781 5786 5790 5795 5799 5805 5812 5816 5819 5823 5826 5829 5832 5837 5841 5845 5847 5849 5853 5858 5864 5867 5871
5779 5777 5774 5771 5769 5767 5763 5761 5758 5755 5752 5749 5747 5747 5746 5747 5748 5749 5752 5754 5757 5761 5766 5769 5774 5780 5784 5789 5794 5800 5807 5812 5815 5818 5822 5825 5828 5833 5837 5840 5840 5845 5850 5855 5858 5861 5865
5775 5772 5770 5768 5765 5762 5760 5757 5755 5752 5750 5748 5746 5745 5745 5744 5745 5746 5749 5751 5753 5757 5760 5763 5768 5773 5778 5782 5788 5794 5801 5807 5810 5814 5818 5821 5824 5829 5832 5835 5838 5840 5845 5850 5853 5858 5860
5770 5768 5765 5762 5760 5757 5755 5753 5751 5749 5747 5746 5744 5742 5742 5741 5742 5742 5744 5746 5749 5752 5755 5758 5761 5766 5771 5775 5780 5785 5793 5800 5805 5809 5812 5816 5819 5824 5828 5831 5832 5838 5842 5846 5848 5849 5854
5765 5762 5759 5757 5754 5751 5750 5748 5747 5745 5743 5742 5740 5739 5738 5737 5737 5738 5739 5741 5743 5746 5749 5751 5754 5760 5764 5769 5773 5777 5784 5791 5797 5801 5806 5810 5813 5818 5822 5825 5828 5833 5836 5839 5841 5847 5850
5759 5756 5754 5751 5749 5746 5743 5742 5740 5738 5737 5736 5735 5734 5734 5733 5732 5732 5733 5734 5737 5739 5742 5745 5748 5751 5756 5761 5765 5769 5774 5781 5787 5793 5797 5802 5807 5811 5815 5818 5823 5828 5832 5835 5837 5838 5843
5752 5750 5747 5744 5741 5739 5736 5733 5731 5729 5728 5727 5727 5726 5727 5727 5726 5726 5726 5726 5729 5731 5735 5738 5742 5746 5749 5753 5757 5762 5765 5771 5776 5781 5788 5793 5799 5804 5808 5813 5820 5824 5828 5830 5831 5831 5834